Dewpoint
59 59 59 59 59 59 59 59 59 59 59 59 59 59 59 59 58 58 57 57 58 57 56 56 56 56 54 30 18 52 70 68 55 35 32 29 29 29 30 32 34 31 26 24 21 22 22
59 59 59 59 59 59 59 59 59 59 58 58 58 58 58 58 58 57 57 58 57 57 56 56 56 58 43 11 29 45 44 48 45 33 29 27 26 34 36 32 27 24 23 21 20 20 21
59 59 59 59 59 59 59 59 59 59 58 58 58 58 58 58 57 57 57 57 58 58 57 57 58 54 30 21 38 42 36 34 34 31 26 30 42 42 33 27 24 22 20 18 18 18 18
59 59 59 59 59 59 59 59 59 59 58 58 58 58 57 57 57 56 56 57 59 58 58 58 59 50 19 26 41 39 32 33 34 35 34 39 42 36 29 26 23 19 19 16 18 18 18
59 59 59 59 58 58 58 57 57 57 57 58 57 57 57 57 56 55 56 56 59 58 58 59 53 43 25 43 34 35 31 30 36 38 36 35 35 29 26 23 16 18 15 15 16 19 20
59 59 58 58 58 58 57 57 57 57 57 57 57 57 57 56 55 55 55 56 59 59 56 52 47 38 31 26 26 30 35 31 22 28 31 31 28 25 20 17 15 16 15 15 17 18 18
58 59 58 57 56 56 55 55 56 57 56 56 57 57 56 56 54 54 50 43 36 35 27 24 27 32 29 25 24 24 30 30 20 19 19 20 16 18 18 20 19 19 18 17 19 20 21
56 56 56 56 57 56 56 56 55 55 56 56 56 56 56 55 53 54 47 30 34 34 28 24 24 24 23 23 18 17 28 20 19 18 18 18 18 20 19 20 20 20 19 21 21 20 21
53 53 53 54 54 55 55 55 55 54 55 55 56 56 55 53 53 46 36 34 36 34 29 24 23 20 18 20 16 16 18 18 18 18 16 17 20 21 21 21 21 21 21 21 20 21 21
52 52 52 52 52 53 54 54 55 54 54 54 55 55 54 52 47 40 35 37 39 36 26 20 18 19 20 19 16 18 18 18 17 16 16 17 20 20 21 20 20 21 19 19 19 20 17
51 51 51 51 51 51 52 54 55 54 54 54 55 55 53 52 47 31 36 40 36 32 20 20 18 21 16 16 16 16 18 18 16 16 19 20 19 19 21 20 21 21 21 21 21 20 20
50 50 50 50 50 50 50 52 54 54 54 54 54 54 53 50 47 38 40 40 34 28 20 17 16 14 13 13 13 16 16 19 20 17 18 18 21 21 21 21 22 24 23 23 24 18 16
49 49 50 50 50 50 50 50 52 53 53 54 53 52 51 47 39 43 43 36 27 21 23 17 17 17 15 17 17 15 18 19 17 21 21 22 21 23 24 23 24 23 20 17 17 16 15
49 49 49 49 49 49 50 50 51 52 53 53 52 51 51 46 44 45 37 29 27 24 21 21 19 19 17 19 21 16 18 20 23 19 18 19 21 23 25 24 25 24 22 20 19 14 16
48 48 48 48 48 49 49 49 50 51 52 52 51 41 44 42 46 40 32 22 23 25 23 21 20 19 21 21 22 20 21 19 23 25 23 21 21 24 25 26 26 27 29 24 24 27 22
48 48 48 48 48 48 48 49 50 51 52 52 47 38 40 42 45 35 28 26 27 26 25 23 22 22 22 22 22 22 24 24 24 25 28 28 25 24 26 26 28 27 28 25 25 25 21
47 47 47 47 47 48 48 48 49 51 51 51 43 30 40 41 38 32 21 24 27 28 27 25 23 23 23 24 23 23 24 27 28 27 29 27 28 27 27 28 26 26 26 28 24 26 22
47 47 47 47 47 47 48 48 48 50 50 49 42 21 41 41 30 32 24 30 34 28 28 23 25 24 25 25 26 26 26 28 30 29 27 30 26 26 25 29 28 27 28 29 24 27 26
48 48 48 48 47 47 47 47 48 50 50 50 38 34 41 40 20 23 32 29 30 29 28 26 23 25 25 26 28 27 29 30 30 29 30 31 27 25 27 27 29 27 28 30 30 30 29
47 47 48 48 48 48 47 47 47 48 49 50 43 29 38 40 39 34 31 29 29 32 29 30 27 26 26 27 29 30 28 27 30 30 47 39 29 31 21 26 29 28 25 28 28 26 24
48 47 47 48 48 48 48 49 47 49 50 50 43 37 44 36 37 38 37 33 28 28 32 30 29 25 27 29 28 27 26 26 26 40 32 30 31 29 27 24 22 22 23 22 23 24 23
49 49 48 48 48 48 48 47 47 48 49 46 40 42 43 38 43 41 37 35 30 30 33 30 30 27 27 30 29 28 26 28 28 31 31 30 30 29 27 22 21 21 21 21 20 21 22
50 49 49 47 47 47 46 47 47 48 49 45 45 46 42 37 33 34 32 35 33 35 34 33 33 31 29 30 32 30 28 30 31 32 32 32 28 29 24 21 22 21 21 21 23 26 29
49 49 49 47 47 45 46 46 48 48 49 49 45 46 37 24 32 28 35 36 35 38 38 34 35 34 37 37 33 30 26 29 31 31 30 33 37 31 24 27 22 29 34 37 34 36 42
49 49 49 48 47 45 44 45 47 46 49 47 48 46 39 28 30 33 36 35 38 41 40 38 36 38 40 35 32 33 30 32 30 28 35 32 36 28 28 21 23 24 36 37 38 38 43
50 49 49 48 47 47 43 43 45 47 47 45 45 50 46 35 27 34 36 35 33 32 34 37 38 41 38 32 29 31 26 26 26 29 35 35 42 32 28 28 23 38 45 44 45 37 44
50 50 49 49 47 47 46 42 43 45 47 46 45 50 47 38 34 38 36 39 38 34 32 36 38 38 38 32 27 24 22 26 25 26 34 32 35 31 28 28 27 40 45 45 38 42 46
50 50 50 49 48 47 47 45 41 43 45 46 44 48 48 41 38 39 41 40 40 40 37 40 37 37 34 31 27 26 25 27 28 30 30 30 32 31 33 33 31 45 45 42 47 49 48
51 51 51 50 49 48 47 46 44 43 43 45 43 44 50 48 38 42 42 41 42 43 43 41 40 42 37 33 30 30 27 30 34 25 37 32 35 32 34 36 47 44 44 47 48 50 51
Lifted_Index
9 9 10 10 10 11 11 12 12 12 12 12 12 13 13 14 15 15 14 14 14 14 14 14 14 13 11 9 9 7 6 5 7 9 9 9 8 7 6 6 6 6 7 7 7 7 6
9 9 10 10 11 11 11 12 12 12 12 12 12 12 13 14 14 14 14 14 14 14 14 14 14 13 10 9 9 8 7 7 8 9 9 9 7 6 6 6 6 7 7 7 7 6 6
9 9 10 10 11 11 11 11 12 12 12 12 12 12 12 13 14 14 14 14 14 14 13 13 13 12 10 9 9 9 9 8 8 9 9 8 6 5 6 6 7 7 6 6 6 6 5
10 10 10 10 11 11 11 11 11 11 12 12 12 12 12 13 14 14 14 14 14 13 13 12 11 10 9 9 9 9 9 9 8 8 8 7 6 6 6 7 6 6 5 4 5 5 5
10 10 10 11 11 11 10 11 11 11 11 11 12 12 12 13 14 14 14 14 13 13 12 11 10 9 9 9 9 9 9 9 8 8 7 7 6 6 6 6 5 4 4 4 4 5 5
10 10 10 10 10 10 10 10 10 11 11 11 12 12 12 13 13 14 14 13 12 11 10 10 9 8 9 9 10 9 9 9 9 8 7 7 6 6 6 5 4 4 3 3 4 5 5
11 11 11 11 11 11 11 11 11 11 12 12 12 12 12 13 13 14 14 12 11 10 9 9 8 8 9 9 10 9 9 9 9 8 7 6 6 5 5 5 4 4 4 4 4 5 5
14 14 14 14 14 14 14 13 13 13 13 13 12 12 12 13 13 13 13 12 11 10 8 8 8 9 9 9 9 9 9 8 8 7 6 6 5 5 5 5 5 4 4 4 4 5 5
17 17 17 17 17 17 17 16 16 16 15 14 13 12 12 13 13 13 13 12 12 10 8 8 8 9 9 9 8 8 8 8 7 6 5 5 5 5 5 5 5 4 4 4 4 4 4
18 18 18 19 19 19 18 18 18 17 16 16 15 13 13 12 12 12 12 12 12 9 7 6 8 8 9 8 8 8 8 7 6 5 5 5 5 5 5 5 5 4 5 5 4 4 3
18 18 19 19 19 19 19 19 18 18 18 17 16 14 13 12 11 11 12 12 10 8 5 5 7 8 8 7 7 7 7 7 6 5 5 5 5 5 5 5 5 5 5 5 4 4 3
19 19 19 19 19 19 19 19 18 18 18 17 16 15 13 11 11 11 11 10 8 5 4 5 7 7 7 6 6 6 6 6 6 5 5 5 5 6 6 6 6 5 5 4 3 3 2
19 19 19 19 19 19 19 19 18 18 17 17 16 14 12 11 10 10 10 9 6 4 4 5 6 6 6 6 6 6 6 5 5 5 4 5 5 6 6 6 6 5 4 3 1 1 0
19 19 19 19 19 19 19 19 19 18 17 16 15 13 11 10 10 10 9 7 5 4 5 6 6 6 5 5 5 5 5 5 5 4 4 4 4 5 5 5 5 5 4 3 2 1 1
19 19 19 19 19 19 19 19 19 18 17 15 14 11 10 10 10 9 8 6 6 6 6 6 6 6 6 5 5 5 5 5 5 5 4 4 4 5 5 5 5 5 5 4 3 2 2
19 19 19 19 19 19 19 19 19 18 17 15 13 11 10 10 10 9 8 7 7 7 7 7 6 6 6 5 5 5 5 5 5 5 5 4 4 5 5 5 5 5 5 5 4 3 2
19 19 19 19 19 19 19 19 19 18 17 14 12 11 10 9 9 9 8 8 8 8 8 7 7 6 6 5 5 5 5 6 6 6 5 5 4 4 5 5 5 5 5 5 4 4 3
19 19 19 19 20 20 20 20 19 18 16 14 11 10 10 9 9 8 8 8 8 8 8 8 7 7 6 6 5 5 5 6 6 6 5 5 5 4 5 5 6 5 5 5 5 4 4
19 19 19 19 19 20 20 20 19 18 17 14 11 10 9 8 8 8 8 8 8 8 8 8 7 7 6 6 5 5 5 6 6 6 6 6 5 5 5 5 6 5 5 5 5 5 5
18 18 19 19 19 19 19 19 19 18 17 14 11 9 8 8 7 7 7 7 7 7 7 7 7 7 7 6 5 5 5 6 6 6 6 6 6 5 5 5 5 5 5 5 5 5 5
17 17 18 18 19 19 19 19 19 18 16 13 10 9 8 7 7 7 7 7 7 7 7 7 7 7 6 6 5 5 5 6 6 7 7 6 6 6 5 5 5 6 5 5 5 5 5
16 16 17 18 18 18 18 18 18 17 14 12 10 8 8 7 7 6 6 6 6 6 6 6 6 6 6 6 6 6 6 6 6 6 6 6 6 6 6 6 6 6 6 6 6 5 5
15 15 16 17 17 17 18 18 17 16 14 12 10 9 9 8 7 7 6 6 6 6 6 6 6 6 6 6 6 6 6 6 6 6 6 6 6 6 5 5 5 5 5 5 5 4 4
14 14 15 15 16 16 17 17 17 16 14 13 11 10 9 9 8 7 7 6 5 5 5 5 5 5 6 6 6 6 6 6 6 6 6 5 5 5 5 4 4 4 4 3 3 2 2
13 13 14 14 15 15 16 16 16 16 15 13 12 10 10 9 9 8 7 6 6 5 5 5 5 5 5 5 5 5 5 5 5 5 5 5 4 4 4 4 3 3 2 2 1 1 1
12 13 13 13 14 15 15 16 16 16 15 13 12 11 10 10 9 8 7 6 6 6 5 5 5 5 5 5 4 4 4 4 4 5 4 4 4 3 3 3 2 2 1 1 0 0 0
12 12 12 13 14 14 15 15 16 15 15 14 12 11 10 10 9 8 7 6 6 6 5 5 5 4 4 4 4 4 4 4 4 4 3 3 3 3 3 2 2 1 -0 -0 -0 -1 -1
11 11 12 12 13 13 14 14 15 15 14 13 12 10 10 10 9 9 8 7 6 6 5 5 4 4 4 4 4 3 3 3 3 3 3 3 3 2 2 1 1 0 -0 -1 -1 -2 -2
11 11 11 12 12 13 13 13 14 14 14 13 11 10 9 9 9 9 8 8 7 6 5 5 4 4 3 3 3 3 3 3 3 3 3 3 2 2 1 0 -0 -0 -0 -1 -1 -2 -2